User: anonymous   Login
Location: Caltech
(34.1382°N, 118.1253°W)
Time: 09:33:48
(UTC-07:00)
Language:

Cosmos 1733 Rocket - Orbit

View from above orbital plane
View from above orbital plane
View from above satellite
View from above satellite

Ground track
Ground track

The orbit data is extracted from the following two-line orbital elements,

1 16612U 86018B   17262.95584953 +.00000078 +00000-0 +64671-5 0  9999
2 16612 082.5182 207.5092 0017162 195.4428 230.6621 14.84162660584419
Epoch (UTC): 19 September 2017 22:56:25
Eccentricity: 0.0017162
inclination: 82.5182°
perigee height: 604 km
apogee height: 628 km
right ascension of ascending node: 207.5092°
argument of perigee: 195.4428°
revolutions per day: 14.84162660
mean anomaly at epoch: 230.6621°
orbit number at epoch: 58441

The dashed part of the orbit path shows where the satellite is in the earth's shadow,  

DLR